Weather History for KPBI - January, 2015

Change the Weather History Date:

Sunday, January 25, 2015

  Actual Average Record
Temperature  
Mean Temperature 58 °F 66 °F  
Max Temperature 68 °F 75 °F 87 °F (1928)
Min Temperature 47 °F 57 °F 39 °F (1940)
Degree Days  
Heating Degree Days 7 3  
Month to date heating degree days 10 75  
Since 1 July heating degree days 52 146  
Cooling Degree Days 0 3  
Month to date cooling degree days 164 82  
Year to date cooling degree days 164 82  
Growing Degree Days 7 (Base 50)    
Moisture  
Dew Point 40 °F    
Average Humidity 56    
Maximum Humidity 86    
Minimum Humidity 26    
Precipitation  
Precipitation 0.00 in 0.09 in 3.60 in (1925)
Month to date precipitation 1.00 2.57  
Year to date precipitation 1.00 2.57  
Snow  
Snow 0.00 in - - ()
Month to date snowfall 0.0  
Since 1 July snowfall 0.0  
Snow Depth 0.00 in    
Sea Level Pressure  
Sea Level Pressure 30.03 in    
Wind  
Wind Speed 7 mph (WNW)    
Max Wind Speed 16 mph    
Max Gust Speed 20 mph    
Visibility 10 miles    
Events      
T = Trace of Precipitation, MM = Missing Value Source: NWS Daily Summary

Daily Weather History Graph

Daily Weather History Graph

Search for Another Location

Airport or City:

Trip Planner

Search our weather history database for the weather conditions in past years. The results will help you decide how hot, cold, wet, or windy it might be!

Date:

Astronomy

Jan. 25, 2015 Rise Set
Actual Time 7:08 AM EST 5:57 PM EST
Civil Twilight 6:43 AM EST 6:21 PM EST
Nautical Twilight 6:15 AM EST 6:49 PM EST
Astronomical Twilight 5:48 AM EST 7:17 PM EST
Moon 10:48 AM EST (1/25) 11:42 PM EST (1/25)
Length of Visible Light 11h 37m
Length of Day
10h 48m
Waxing Crescent, 34% of the Moon is Illuminated
Jan 25
Waxing Crescent
Jan 26
First Quarter
Feb 3
Full
Feb 11
Last Quarter
Feb 18
New

Hourly Weather History & Observations

Time (EST) Temp. Dew Point Humidity Pressure Visibility Wind Dir Wind Speed Gust Speed Precip Events Conditions
12:53 AM 55.0 °F 50.0 °F 83% 30.00 in 10.0 mi WNW 11.5 mph - N/A   Clear
1:53 AM 53.1 °F 48.0 °F 83% 30.01 in 10.0 mi NW 12.7 mph - N/A   Clear
2:53 AM 51.1 °F 46.0 °F 83% 30.02 in 10.0 mi NW 12.7 mph - N/A   Partly Cloudy
3:53 AM 50.0 °F 46.0 °F 86% 30.01 in 10.0 mi WNW 10.4 mph - N/A   Clear
4:53 AM 48.9 °F 45.0 °F 86% 30.02 in 10.0 mi NW 10.4 mph - N/A   Clear
5:53 AM 48.0 °F 45.0 °F 89% 30.04 in 10.0 mi NW 10.4 mph - N/A   Clear
6:53 AM 46.9 °F 43.0 °F 86% 30.06 in 10.0 mi NW 9.2 mph - N/A   Partly Cloudy
7:53 AM 50.0 °F 42.1 °F 74% 30.08 in 10.0 mi NW 10.4 mph - N/A   Partly Cloudy
8:53 AM 53.1 °F 39.9 °F 61% 30.09 in 10.0 mi NNW 13.8 mph - N/A   Partly Cloudy
9:53 AM 57.9 °F 39.0 °F 49% 30.10 in 10.0 mi NW 10.4 mph - N/A   Scattered Clouds
10:53 AM 61.0 °F 39.9 °F 46% 30.09 in 10.0 mi North 8.1 mph - N/A   Scattered Clouds
11:53 AM 62.6 °F 37.4 °F 39% 30.08 in 10.0 mi Variable 5.8 mph - N/A   Scattered Clouds
12:53 PM 64.4 °F 37.4 °F 37% 30.04 in 10.0 mi Calm Calm - N/A   Scattered Clouds
1:53 PM 66.9 °F 36.0 °F 32% 30.00 in 10.0 mi Variable 3.5 mph - N/A   Mostly Cloudy
2:53 PM 66.9 °F 32.0 °F 27% 29.99 in 10.0 mi WNW 5.8 mph - N/A   Mostly Cloudy
3:53 PM 66.9 °F 32.0 °F 27% 29.99 in 10.0 mi South 4.6 mph - N/A   Mostly Cloudy
4:53 PM 66.0 °F 30.9 °F 27% 29.98 in 10.0 mi WSW 4.6 mph - N/A   Mostly Cloudy
5:53 PM 62.1 °F 36.0 °F 38% 29.99 in 10.0 mi West 8.1 mph - N/A   Mostly Cloudy
6:53 PM 60.1 °F 39.0 °F 46% 30.01 in 10.0 mi West 6.9 mph - N/A   Overcast
7:53 PM 55.9 °F 39.0 °F 53% 30.03 in 10.0 mi WNW 5.8 mph - N/A   Mostly Cloudy
8:53 PM 55.9 °F 37.9 °F 51% 30.03 in 10.0 mi West 3.5 mph - N/A   Scattered Clouds
9:53 PM 55.9 °F 41.0 °F 57% 30.02 in 10.0 mi Calm Calm - N/A   Partly Cloudy
10:53 PM 53.1 °F 41.0 °F 64% 30.01 in 10.0 mi SW 4.6 mph - N/A   Clear
11:53 PM 53.1 °F 41.0 °F 64% 29.99 in 10.0 mi SW 5.8 mph - N/A   Partly Cloudy